Terug naar catalogus

ONEWEB-0549

ActiefCommunicatiePO
NORAD 56051·PAYLOAD·🇬🇧 United Kingdom

Gelanceerd Mar 26, 2023 vanaf Satish Dhawan Space Centre

Loading…

Volgende Passages (komende 24 uur)

TLE

VersSource: CelesTrak SupGP

Epoch: Sep 14, 2026, 23:01 UTC

1 56051C 23043F   26257.95919396 -.00002801  00000+0 -67910-2 0  2576
2 56051  87.9274 226.1079 0001815  76.7881   2.8375 13.21830356    13

Volg ONEWEB-0549 in realtime met AllMySat

Download on the App Store